Regional Weather Roundup
Issued by NWS

Home | Current Version | Previous Version | Graphics & Text | Print | Product List | Glossary On
Versions: 1 2 3 4 5 6 7 8 9 10 11 12 13 14 15 16 17 18 19 20 21 22 23 24 25 26 27 28 29 30 31 32 33 34 35 36 37 38 39 40 41 42 43 44 45 46 47 48 49 50
686
ASUS45 KCYS 272210
RWRWY

WYOMING REGIONAL WEATHER ROUNDUP
NATIONAL WEATHER SERVICE CHEYENNE WY
400 PM MDT WED JUL 27 2016

NOTE:  "FAIR" INDICATES FEW OR NO CLOUDS BELOW 12,000 FEET
WITH NO SIGNIFICANT WEATHER AND/OR OBSTRUCTIONS TO VISIBILITY.

WYZ001-272300-
YELLOWSTONE NATIONAL PARK

CITY           SKY/WX    TMP DP  RH WIND       PRES   REMARKS
LK YELLOWSTONE   N/A     79  30  16 VRB7      30.38F
W YELLOWSTONE  NOT AVBL

$$
WYZ002>013-054>058-071-098>099-272300-
NORTHERN WYOMING

CITY           SKY/WX    TMP DP  RH WIND       PRES   REMARKS
JACKSON        MOSUNNY   86  30  13 W16G22    30.25F
CODY           FAIR      84  46  26 N8        30.17F
GREYBULL       FAIR      93  36  13 VRB6      30.05F
WORLAND        FAIR      91  41  17 VRB7      30.08F
SHERIDAN       FAIR      87  50  27 VRB7      30.11F
BUFFALO        FAIR      86  47  25 N10G20    30.18F
GILLETTE       PTSUNNY   84  52  33 E6        30.13F
HULETT         FAIR      82  50  32 E9        30.17F
NEWCASTLE      FAIR      82  43  24 SW5       30.13S

$$
WYZ014>020-022>026-101>103-272300-
CENTRAL WYOMING

CITY           SKY/WX    TMP DP  RH WIND       PRES   REMARKS
BIG PINEY      FAIR      89  24   9 VRB6      30.28F
PINEDALE       FAIR      84  25  11 NW16      30.30F
DUBOIS         FAIR      84  23  10 NW16G26   30.28F
LANDER         FAIR      90  39  16 NE8       30.16F
RIVERTON       FAIR      88  41  19 E8        30.15F
CASPER         FAIR      89  39  17 VRB3G21   30.15F
DOUGLAS          N/A    N/A N/A N/A MISG      30.14S

$$
WYZ021-027>030-104>119-272300-
SOUTHERN WYOMING

CITY           SKY/WX    TMP DP  RH WIND       PRES   REMARKS
EVANSTON       FAIR      88  23   9 W21G28    30.32F
KEMMERER         N/A    N/A N/A N/A W13G24    30.33S
FORT BRIDGER   FAIR      90  16   6 NW18G30   30.33F
ROCK SPRINGS   FAIR      90  14   6 NW14G20   30.25F
DIXON          FAIR      92  23   8 W14G29    30.25F
RAWLINS        FAIR      87  27  11 VRB5      30.27F
SARATOGA       FAIR      86  27  11 NW12G22   30.29S
LARAMIE        FAIR      87  29  12 NW16G28   30.27F
CHEYENNE       LGT RAIN  74  55  51 E9        30.22F
TORRINGTON     FAIR      88  48  25 SE12      30.09F
PINE BLUFFS    FAIR      86  50  28 NE3       30.15F

$$




USA.gov is the U.S. government's official web portal to all federal, state and local government web resources and services.